Date_Time,Julian_Date,Latitude,Longitude,Instrument_Depth,Water_Salinity
(yyyy-mm-dd hh:mn:ss UTC),(JD),(+ deg. North),(+ deg. East),(m),(ppt)
1981-10-28 18:30:00 UTC,2444906.270833,29.7697,-93.3439,0046,22.7000
1981-10-28 19:00:00 UTC,2444906.291667,29.7697,-93.3439,0046,22.8000
1981-10-28 19:30:00 UTC,2444906.312500,29.7697,-93.3439,0046,23.0000
1981-10-28 20:00:00 UTC,2444906.333333,29.7697,-93.3439,0046,23.4000
1981-10-28 20:30:00 UTC,2444906.354167,29.7697,-93.3439,0046,24.7000
1981-10-28 21:00:00 UTC,2444906.375000,29.7697,-93.3439,0046,26.6000
1981-10-28 21:30:00 UTC,2444906.395833,29.7697,-93.3439,0046,27.7000
1981-10-28 22:00:00 UTC,2444906.416667,29.7697,-93.3439,0046,27.9000
1981-10-28 22:30:00 UTC,2444906.437500,29.7697,-93.3439,0046,27.9000
1981-10-28 23:00:00 UTC,2444906.458333,29.7697,-93.3439,0046,28.0000
1981-10-28 23:30:00 UTC,2444906.479167,29.7697,-93.3439,0046,28.1000
1981-10-29 00:00:00 UTC,2444906.500000,29.7697,-93.3439,0046,28.1000
1981-10-29 00:30:00 UTC,2444906.520833,29.7697,-93.3439,0046,28.2000
1981-10-29 01:00:00 UTC,2444906.541667,29.7697,-93.3439,0046,28.2000
1981-10-29 01:30:00 UTC,2444906.562500,29.7697,-93.3439,0046,28.2000
1981-10-29 02:00:00 UTC,2444906.583333,29.7697,-93.3439,0046,28.3000
1981-10-29 02:30:00 UTC,2444906.604167,29.7697,-93.3439,0046,28.2000
1981-10-29 03:00:00 UTC,2444906.625000,29.7697,-93.3439,0046,28.2000
1981-10-29 03:30:00 UTC,2444906.645833,29.7697,-93.3439,0046,28.2000
1981-10-29 04:00:00 UTC,2444906.666667,29.7697,-93.3439,0046,28.2000
1981-10-29 04:30:00 UTC,2444906.687500,29.7697,-93.3439,0046,28.2000
1981-10-29 05:00:00 UTC,2444906.708333,29.7697,-93.3439,0046,28.2000
1981-10-29 05:30:00 UTC,2444906.729167,29.7697,-93.3439,0046,28.2000
1981-10-29 06:00:00 UTC,2444906.750000,29.7697,-93.3439,0046,28.2000
1981-10-29 06:30:00 UTC,2444906.770833,29.7697,-93.3439,0046,28.2000
1981-10-29 07:00:00 UTC,2444906.791667,29.7697,-93.3439,0046,28.2000
1981-10-29 07:30:00 UTC,2444906.812500,29.7697,-93.3439,0046,28.2000
1981-10-29 08:00:00 UTC,2444906.833333,29.7697,-93.3439,0046,28.2000
1981-10-29 08:30:00 UTC,2444906.854167,29.7697,-93.3439,0046,28.2000
1981-10-29 09:00:00 UTC,2444906.875000,29.7697,-93.3439,0046,28.3000
1981-10-29 09:30:00 UTC,2444906.895833,29.7697,-93.3439,0046,28.3000
1981-10-29 10:00:00 UTC,2444906.916667,29.7697,-93.3439,0046,28.3000
1981-10-29 10:30:00 UTC,2444906.937500,29.7697,-93.3439,0046,28.3000
1981-10-29 11:00:00 UTC,2444906.958333,29.7697,-93.3439,0046,28.3000
1981-10-29 11:30:00 UTC,2444906.979167,29.7697,-93.3439,0046,28.3000
1981-10-29 12:00:00 UTC,2444907.000000,29.7697,-93.3439,0046,28.3000
1981-10-29 12:30:00 UTC,2444907.020833,29.7697,-93.3439,0046,28.2000
1981-10-29 13:00:00 UTC,2444907.041667,29.7697,-93.3439,0046,28.2000
1981-10-29 13:30:00 UTC,2444907.062500,29.7697,-93.3439,0046,28.0000
1981-10-29 14:00:00 UTC,2444907.083333,29.7697,-93.3439,0046,27.6000
1981-10-29 14:30:00 UTC,2444907.104167,29.7697,-93.3439,0046,27.0000
1981-10-29 15:00:00 UTC,2444907.125000,29.7697,-93.3439,0046,26.2000
1981-10-29 15:30:00 UTC,2444907.145833,29.7697,-93.3439,0046,25.3000
1981-10-29 16:00:00 UTC,2444907.166667,29.7697,-93.3439,0046,24.6000
1981-10-29 16:30:00 UTC,2444907.187500,29.7697,-93.3439,0046,24.0000
1981-10-29 17:00:00 UTC,2444907.208333,29.7697,-93.3439,0046,23.7000
1981-10-29 17:30:00 UTC,2444907.229167,29.7697,-93.3439,0046,23.4000
1981-10-29 18:00:00 UTC,2444907.250000,29.7697,-93.3439,0046,23.0000
1981-10-29 18:30:00 UTC,2444907.270833,29.7697,-93.3439,0046,22.7000
1981-10-29 19:00:00 UTC,2444907.291667,29.7697,-93.3439,0046,22.4000
1981-10-29 19:30:00 UTC,2444907.312500,29.7697,-93.3439,0046,22.3000
1981-10-29 20:00:00 UTC,2444907.333333,29.7697,-93.3439,0046,22.5000
1981-10-29 20:30:00 UTC,2444907.354167,29.7697,-93.3439,0046,23.4000
1981-10-29 21:00:00 UTC,2444907.375000,29.7697,-93.3439,0046,25.4000
1981-10-29 21:30:00 UTC,2444907.395833,29.7697,-93.3439,0046,27.3000
1981-10-29 22:00:00 UTC,2444907.416667,29.7697,-93.3439,0046,28.0000
1981-10-29 22:30:00 UTC,2444907.437500,29.7697,-93.3439,0046,28.1000
1981-10-29 23:00:00 UTC,2444907.458333,29.7697,-93.3439,0046,28.2000
1981-10-29 23:30:00 UTC,2444907.479167,29.7697,-93.3439,0046,28.2000
1981-10-30 00:00:00 UTC,2444907.500000,29.7697,-93.3439,0046,28.3000
1981-10-30 00:30:00 UTC,2444907.520833,29.7697,-93.3439,0046,28.3000
1981-10-30 01:00:00 UTC,2444907.541667,29.7697,-93.3439,0046,28.3000
1981-10-30 01:30:00 UTC,2444907.562500,29.7697,-93.3439,0046,28.3000
1981-10-30 02:00:00 UTC,2444907.583333,29.7697,-93.3439,0046,28.3000
1981-10-30 02:30:00 UTC,2444907.604167,29.7697,-93.3439,0046,28.3000
1981-10-30 03:00:00 UTC,2444907.625000,29.7697,-93.3439,0046,28.3000
1981-10-30 03:30:00 UTC,2444907.645833,29.7697,-93.3439,0046,28.3000
1981-10-30 04:00:00 UTC,2444907.666667,29.7697,-93.3439,0046,28.3000
1981-10-30 04:30:00 UTC,2444907.687500,29.7697,-93.3439,0046,28.3000
1981-10-30 05:00:00 UTC,2444907.708333,29.7697,-93.3439,0046,28.3000
1981-10-30 05:30:00 UTC,2444907.729167,29.7697,-93.3439,0046,28.3000
1981-10-30 06:00:00 UTC,2444907.750000,29.7697,-93.3439,0046,28.3000
1981-10-30 06:30:00 UTC,2444907.770833,29.7697,-93.3439,0046,28.3000
1981-10-30 07:00:00 UTC,2444907.791667,29.7697,-93.3439,0046,28.3000
1981-10-30 07:30:00 UTC,2444907.812500,29.7697,-93.3439,0046,28.3000
1981-10-30 08:00:00 UTC,2444907.833333,29.7697,-93.3439,0046,28.2000
1981-10-30 08:30:00 UTC,2444907.854167,29.7697,-93.3439,0046,28.2000
1981-10-30 09:00:00 UTC,2444907.875000,29.7697,-93.3439,0046,28.2000
1981-10-30 09:30:00 UTC,2444907.895833,29.7697,-93.3439,0046,28.1000
1981-10-30 10:00:00 UTC,2444907.916667,29.7697,-93.3439,0046,28.1000
1981-10-30 10:30:00 UTC,2444907.937500,29.7697,-93.3439,0046,28.1000
1981-10-30 11:00:00 UTC,2444907.958333,29.7697,-93.3439,0046,28.2000
1981-10-30 11:30:00 UTC,2444907.979167,29.7697,-93.3439,0046,28.2000
1981-10-30 12:00:00 UTC,2444908.000000,29.7697,-93.3439,0046,28.1000
1981-10-30 12:30:00 UTC,2444908.020833,29.7697,-93.3439,0046,28.1000
1981-10-30 13:00:00 UTC,2444908.041667,29.7697,-93.3439,0046,28.2000
1981-10-30 13:30:00 UTC,2444908.062500,29.7697,-93.3439,0046,28.2000
1981-10-30 14:00:00 UTC,2444908.083333,29.7697,-93.3439,0046,28.3000
1981-10-30 14:30:00 UTC,2444908.104167,29.7697,-93.3439,0046,28.3000
1981-10-30 15:00:00 UTC,2444908.125000,29.7697,-93.3439,0046,28.2000
1981-10-30 15:30:00 UTC,2444908.145833,29.7697,-93.3439,0046,28.0000
1981-10-30 16:00:00 UTC,2444908.166667,29.7697,-93.3439,0046,27.8000
1981-10-30 16:30:00 UTC,2444908.187500,29.7697,-93.3439,0046,27.4000
1981-10-30 17:00:00 UTC,2444908.208333,29.7697,-93.3439,0046,26.6000
1981-10-30 17:30:00 UTC,2444908.229167,29.7697,-93.3439,0046,25.9000
1981-10-30 18:00:00 UTC,2444908.250000,29.7697,-93.3439,0046,25.2000
1981-10-30 18:30:00 UTC,2444908.270833,29.7697,-93.3439,0046,24.7000
1981-10-30 19:00:00 UTC,2444908.291667,29.7697,-93.3439,0046,24.4000
1981-10-30 19:30:00 UTC,2444908.312500,29.7697,-93.3439,0046,24.2000
1981-10-30 20:00:00 UTC,2444908.333333,29.7697,-93.3439,0046,24.1000
1981-10-30 20:30:00 UTC,2444908.354167,29.7697,-93.3439,0046,24.4000
1981-10-30 21:00:00 UTC,2444908.375000,29.7697,-93.3439,0046,25.1000
1981-10-30 21:30:00 UTC,2444908.395833,29.7697,-93.3439,0046,26.3000
1981-10-30 22:00:00 UTC,2444908.416667,29.7697,-93.3439,0046,27.3000
1981-10-30 22:30:00 UTC,2444908.437500,29.7697,-93.3439,0046,27.6000
1981-10-30 23:00:00 UTC,2444908.458333,29.7697,-93.3439,0046,27.7000
1981-10-30 23:30:00 UTC,2444908.479167,29.7697,-93.3439,0046,27.7000
1981-10-31 00:00:00 UTC,2444908.500000,29.7697,-93.3439,0046,27.8000
1981-10-31 00:30:00 UTC,2444908.520833,29.7697,-93.3439,0046,27.8000
1981-10-31 01:00:00 UTC,2444908.541667,29.7697,-93.3439,0046,27.8000
1981-10-31 01:30:00 UTC,2444908.562500,29.7697,-93.3439,0046,27.8000
1981-10-31 02:00:00 UTC,2444908.583333,29.7697,-93.3439,0046,27.9000
1981-10-31 02:30:00 UTC,2444908.604167,29.7697,-93.3439,0046,27.9000
1981-10-31 03:00:00 UTC,2444908.625000,29.7697,-93.3439,0046,27.9000
1981-10-31 03:30:00 UTC,2444908.645833,29.7697,-93.3439,0046,27.9000
1981-10-31 04:00:00 UTC,2444908.666667,29.7697,-93.3439,0046,27.8000
1981-10-31 04:30:00 UTC,2444908.687500,29.7697,-93.3439,0046,27.8000
1981-10-31 05:00:00 UTC,2444908.708333,29.7697,-93.3439,0046,27.8000
1981-10-31 05:30:00 UTC,2444908.729167,29.7697,-93.3439,0046,27.8000
1981-10-31 06:00:00 UTC,2444908.750000,29.7697,-93.3439,0046,27.8000
1981-10-31 06:30:00 UTC,2444908.770833,29.7697,-93.3439,0046,27.8000
1981-10-31 07:00:00 UTC,2444908.791667,29.7697,-93.3439,0046,27.8000
1981-10-31 07:30:00 UTC,2444908.812500,29.7697,-93.3439,0046,27.8000
1981-10-31 08:00:00 UTC,2444908.833333,29.7697,-93.3439,0046,27.8000
1981-10-31 08:30:00 UTC,2444908.854167,29.7697,-93.3439,0046,27.8000
1981-10-31 09:00:00 UTC,2444908.875000,29.7697,-93.3439,0046,27.7000
1981-10-31 09:30:00 UTC,2444908.895833,29.7697,-93.3439,0046,27.7000
1981-10-31 10:00:00 UTC,2444908.916667,29.7697,-93.3439,0046,27.8000
1981-10-31 10:30:00 UTC,2444908.937500,29.7697,-93.3439,0046,27.8000
1981-10-31 11:00:00 UTC,2444908.958333,29.7697,-93.3439,0046,27.8000
1981-10-31 11:30:00 UTC,2444908.979167,29.7697,-93.3439,0046,27.8000
1981-10-31 12:00:00 UTC,2444909.000000,29.7697,-93.3439,0046,27.8000
1981-10-31 12:30:00 UTC,2444909.020833,29.7697,-93.3439,0046,27.7000
1981-10-31 13:00:00 UTC,2444909.041667,29.7697,-93.3439,0046,27.5000
1981-10-31 13:30:00 UTC,2444909.062500,29.7697,-93.3439,0046,27.3000
1981-10-31 14:00:00 UTC,2444909.083333,29.7697,-93.3439,0046,27.0000
1981-10-31 14:30:00 UTC,2444909.104167,29.7697,-93.3439,0046,26.5000
1981-10-31 15:00:00 UTC,2444909.125000,29.7697,-93.3439,0046,25.9000
1981-10-31 15:30:00 UTC,2444909.145833,29.7697,-93.3439,0046,25.5000
1981-10-31 16:00:00 UTC,2444909.166667,29.7697,-93.3439,0046,25.2000
1981-10-31 16:30:00 UTC,2444909.187500,29.7697,-93.3439,0046,25.1000
1981-10-31 17:00:00 UTC,2444909.208333,29.7697,-93.3439,0046,24.9000
1981-10-31 17:30:00 UTC,2444909.229167,29.7697,-93.3439,0046,24.5000
1981-10-31 18:00:00 UTC,2444909.250000,29.7697,-93.3439,0046,24.2000
1981-10-31 18:30:00 UTC,2444909.270833,29.7697,-93.3439,0046,23.9000
1981-10-31 19:00:00 UTC,2444909.291667,29.7697,-93.3439,0046,23.6000
1981-10-31 19:30:00 UTC,2444909.312500,29.7697,-93.3439,0046,23.4000
1981-10-31 20:00:00 UTC,2444909.333333,29.7697,-93.3439,0046,23.3000
1981-10-31 20:30:00 UTC,2444909.354167,29.7697,-93.3439,0046,23.3000
1981-10-31 21:00:00 UTC,2444909.375000,29.7697,-93.3439,0046,23.4000
1981-10-31 21:30:00 UTC,2444909.395833,29.7697,-93.3439,0046,23.9000
1981-10-31 22:00:00 UTC,2444909.416667,29.7697,-93.3439,0046,25.2000
1981-10-31 22:30:00 UTC,2444909.437500,29.7697,-93.3439,0046,26.6000
1981-10-31 23:00:00 UTC,2444909.458333,29.7697,-93.3439,0046,27.3000
1981-10-31 23:30:00 UTC,2444909.479167,29.7697,-93.3439,0046,27.3000
1981-11-01 00:00:00 UTC,2444909.500000,29.7697,-93.3439,0046,27.3000
1981-11-01 00:30:00 UTC,2444909.520833,29.7697,-93.3439,0046,27.3000
1981-11-01 01:00:00 UTC,2444909.541667,29.7697,-93.3439,0046,27.3000
1981-11-01 01:30:00 UTC,2444909.562500,29.7697,-93.3439,0046,27.4000
1981-11-01 02:00:00 UTC,2444909.583333,29.7697,-93.3439,0046,27.4000
1981-11-01 02:30:00 UTC,2444909.604167,29.7697,-93.3439,0046,27.4000
1981-11-01 03:00:00 UTC,2444909.625000,29.7697,-93.3439,0046,27.4000
1981-11-01 03:30:00 UTC,2444909.645833,29.7697,-93.3439,0046,27.4000
1981-11-01 04:00:00 UTC,2444909.666667,29.7697,-93.3439,0046,27.4000
1981-11-01 04:30:00 UTC,2444909.687500,29.7697,-93.3439,0046,27.3000
1981-11-01 05:00:00 UTC,2444909.708333,29.7697,-93.3439,0046,27.3000
1981-11-01 05:30:00 UTC,2444909.729167,29.7697,-93.3439,0046,27.3000
1981-11-01 06:00:00 UTC,2444909.750000,29.7697,-93.3439,0046,27.4000
1981-11-01 06:30:00 UTC,2444909.770833,29.7697,-93.3439,0046,27.4000
1981-11-01 07:00:00 UTC,2444909.791667,29.7697,-93.3439,0046,27.4000
1981-11-01 07:30:00 UTC,2444909.812500,29.7697,-93.3439,0046,27.4000
1981-11-01 08:00:00 UTC,2444909.833333,29.7697,-93.3439,0046,27.4000
1981-11-01 08:30:00 UTC,2444909.854167,29.7697,-93.3439,0046,27.4000
1981-11-01 09:00:00 UTC,2444909.875000,29.7697,-93.3439,0046,27.4000
1981-11-01 09:30:00 UTC,2444909.895833,29.7697,-93.3439,0046,27.4000
1981-11-01 10:00:00 UTC,2444909.916667,29.7697,-93.3439,0046,27.5000
1981-11-01 10:30:00 UTC,2444909.937500,29.7697,-93.3439,0046,27.5000
1981-11-01 11:00:00 UTC,2444909.958333,29.7697,-93.3439,0046,27.5000
1981-11-01 11:30:00 UTC,2444909.979167,29.7697,-93.3439,0046,27.5000
1981-11-01 12:00:00 UTC,2444910.000000,29.7697,-93.3439,0046,27.5000
1981-11-01 12:30:00 UTC,2444910.020833,29.7697,-93.3439,0046,27.5000
1981-11-01 13:00:00 UTC,2444910.041667,29.7697,-93.3439,0046,27.5000
1981-11-01 13:30:00 UTC,2444910.062500,29.7697,-93.3439,0046,27.5000
1981-11-01 14:00:00 UTC,2444910.083333,29.7697,-93.3439,0046,27.5000
1981-11-01 14:30:00 UTC,2444910.104167,29.7697,-93.3439,0046,27.5000
1981-11-01 15:00:00 UTC,2444910.125000,29.7697,-93.3439,0046,27.4000
1981-11-01 15:30:00 UTC,2444910.145833,29.7697,-93.3439,0046,27.4000
1981-11-01 16:00:00 UTC,2444910.166667,29.7697,-93.3439,0046,27.3000
1981-11-01 16:30:00 UTC,2444910.187500,29.7697,-93.3439,0046,27.2000
1981-11-01 17:00:00 UTC,2444910.208333,29.7697,-93.3439,0046,27.1000
1981-11-01 17:30:00 UTC,2444910.229167,29.7697,-93.3439,0046,26.9000
1981-11-01 18:00:00 UTC,2444910.250000,29.7697,-93.3439,0046,26.4000
1981-11-01 18:30:00 UTC,2444910.270833,29.7697,-93.3439,0046,25.9000
1981-11-01 19:00:00 UTC,2444910.291667,29.7697,-93.3439,0046,25.4000
1981-11-01 19:30:00 UTC,2444910.312500,29.7697,-93.3439,0046,24.9000
1981-11-01 20:00:00 UTC,2444910.333333,29.7697,-93.3439,0046,24.6000
1981-11-01 20:30:00 UTC,2444910.354167,29.7697,-93.3439,0046,24.4000
1981-11-01 21:00:00 UTC,2444910.375000,29.7697,-93.3439,0046,24.3000
1981-11-01 21:30:00 UTC,2444910.395833,29.7697,-93.3439,0046,24.3000
1981-11-01 22:00:00 UTC,2444910.416667,29.7697,-93.3439,0046,24.2000
1981-11-01 22:30:00 UTC,2444910.437500,29.7697,-93.3439,0046,24.1000
1981-11-01 23:00:00 UTC,2444910.458333,29.7697,-93.3439,0046,24.1000
1981-11-01 23:30:00 UTC,2444910.479167,29.7697,-93.3439,0046,24.1000
1981-11-02 00:00:00 UTC,2444910.500000,29.7697,-93.3439,0046,24.1000
1981-11-02 00:30:00 UTC,2444910.520833,29.7697,-93.3439,0046,24.2000
1981-11-02 01:00:00 UTC,2444910.541667,29.7697,-93.3439,0046,24.2000
1981-11-02 01:30:00 UTC,2444910.562500,29.7697,-93.3439,0046,24.5000
1981-11-02 02:00:00 UTC,2444910.583333,29.7697,-93.3439,0046,25.2000
1981-11-02 02:30:00 UTC,2444910.604167,29.7697,-93.3439,0046,26.3000
1981-11-02 03:00:00 UTC,2444910.625000,29.7697,-93.3439,0046,27.5000
1981-11-02 03:30:00 UTC,2444910.645833,29.7697,-93.3439,0046,28.3000
1981-11-02 04:00:00 UTC,2444910.666667,29.7697,-93.3439,0046,28.7000
1981-11-02 04:30:00 UTC,2444910.687500,29.7697,-93.3439,0046,28.9000
1981-11-02 05:00:00 UTC,2444910.708333,29.7697,-93.3439,0046,29.0000
1981-11-02 05:30:00 UTC,2444910.729167,29.7697,-93.3439,0046,29.0000
1981-11-02 06:00:00 UTC,2444910.750000,29.7697,-93.3439,0046,28.9000
1981-11-02 06:30:00 UTC,2444910.770833,29.7697,-93.3439,0046,28.9000
1981-11-02 07:00:00 UTC,2444910.791667,29.7697,-93.3439,0046,29.0000
1981-11-02 07:30:00 UTC,2444910.812500,29.7697,-93.3439,0046,28.9000
1981-11-02 08:00:00 UTC,2444910.833333,29.7697,-93.3439,0046,28.9000
1981-11-02 08:30:00 UTC,2444910.854167,29.7697,-93.3439,0046,28.9000
1981-11-02 09:00:00 UTC,2444910.875000,29.7697,-93.3439,0046,28.8000
1981-11-02 09:30:00 UTC,2444910.895833,29.7697,-93.3439,0046,28.8000
1981-11-02 10:00:00 UTC,2444910.916667,29.7697,-93.3439,0046,28.7000
1981-11-02 10:30:00 UTC,2444910.937500,29.7697,-93.3439,0046,28.4000
1981-11-02 11:00:00 UTC,2444910.958333,29.7697,-93.3439,0046,28.2000
1981-11-02 11:30:00 UTC,2444910.979167,29.7697,-93.3439,0046,28.1000
1981-11-02 12:00:00 UTC,2444911.000000,29.7697,-93.3439,0046,28.0000
1981-11-02 12:30:00 UTC,2444911.020833,29.7697,-93.3439,0046,27.5000
1981-11-02 13:00:00 UTC,2444911.041667,29.7697,-93.3439,0046,26.8000
1981-11-02 13:30:00 UTC,2444911.062500,29.7697,-93.3439,0046,26.0000
1981-11-02 14:00:00 UTC,2444911.083333,29.7697,-93.3439,0046,25.6000
1981-11-02 14:30:00 UTC,2444911.104167,29.7697,-93.3439,0046,25.6000
1981-11-02 15:00:00 UTC,2444911.125000,29.7697,-93.3439,0046,25.5000
1981-11-02 15:30:00 UTC,2444911.145833,29.7697,-93.3439,0046,25.4000
1981-11-02 16:00:00 UTC,2444911.166667,29.7697,-93.3439,0046,25.2000
1981-11-02 16:30:00 UTC,2444911.187500,29.7697,-93.3439,0046,25.0000
1981-11-02 17:00:00 UTC,2444911.208333,29.7697,-93.3439,0046,24.7000
1981-11-02 17:30:00 UTC,2444911.229167,29.7697,-93.3439,0046,24.4000
1981-11-02 18:00:00 UTC,2444911.250000,29.7697,-93.3439,0046,24.1000
1981-11-02 18:30:00 UTC,2444911.270833,29.7697,-93.3439,0046,23.7000
1981-11-02 19:00:00 UTC,2444911.291667,29.7697,-93.3439,0046,23.5000
1981-11-02 19:30:00 UTC,2444911.312500,29.7697,-93.3439,0046,23.3000
1981-11-02 20:00:00 UTC,2444911.333333,29.7697,-93.3439,0046,23.2000
1981-11-02 20:30:00 UTC,2444911.354167,29.7697,-93.3439,0046,23.0000
1981-11-02 21:00:00 UTC,2444911.375000,29.7697,-93.3439,0046,22.8000
1981-11-02 21:30:00 UTC,2444911.395833,29.7697,-93.3439,0046,22.6000
1981-11-02 22:00:00 UTC,2444911.416667,29.7697,-93.3439,0046,22.4000
1981-11-02 22:30:00 UTC,2444911.437500,29.7697,-93.3439,0046,22.4000
1981-11-02 23:00:00 UTC,2444911.458333,29.7697,-93.3439,0046,22.5000
1981-11-02 23:30:00 UTC,2444911.479167,29.7697,-93.3439,0046,22.9000
1981-11-03 00:00:00 UTC,2444911.500000,29.7697,-93.3439,0046,24.5000
1981-11-03 00:30:00 UTC,2444911.520833,29.7697,-93.3439,0046,26.8000
1981-11-03 01:00:00 UTC,2444911.541667,29.7697,-93.3439,0046,28.2000
1981-11-03 01:30:00 UTC,2444911.562500,29.7697,-93.3439,0046,28.5000
1981-11-03 02:00:00 UTC,2444911.583333,29.7697,-93.3439,0046,28.5000
1981-11-03 02:30:00 UTC,2444911.604167,29.7697,-93.3439,0046,28.5000
1981-11-03 03:00:00 UTC,2444911.625000,29.7697,-93.3439,0046,28.5000
1981-11-03 03:30:00 UTC,2444911.645833,29.7697,-93.3439,0046,28.6000
1981-11-03 04:00:00 UTC,2444911.666667,29.7697,-93.3439,0046,28.5000
1981-11-03 04:30:00 UTC,2444911.687500,29.7697,-93.3439,0046,28.5000
1981-11-03 05:00:00 UTC,2444911.708333,29.7697,-93.3439,0046,28.5000
1981-11-03 05:30:00 UTC,2444911.729167,29.7697,-93.3439,0046,28.5000
1981-11-03 06:00:00 UTC,2444911.750000,29.7697,-93.3439,0046,28.4000
1981-11-03 06:30:00 UTC,2444911.770833,29.7697,-93.3439,0046,28.4000
1981-11-03 07:00:00 UTC,2444911.791667,29.7697,-93.3439,0046,28.4000
1981-11-03 07:30:00 UTC,2444911.812500,29.7697,-93.3439,0046,28.4000
1981-11-03 08:00:00 UTC,2444911.833333,29.7697,-93.3439,0046,28.3000
1981-11-03 08:30:00 UTC,2444911.854167,29.7697,-93.3439,0046,28.3000
1981-11-03 09:00:00 UTC,2444911.875000,29.7697,-93.3439,0046,28.3000
1981-11-03 09:30:00 UTC,2444911.895833,29.7697,-93.3439,0046,28.3000
1981-11-03 10:00:00 UTC,2444911.916667,29.7697,-93.3439,0046,28.4000
1981-11-03 10:30:00 UTC,2444911.937500,29.7697,-93.3439,0046,28.3000
1981-11-03 11:00:00 UTC,2444911.958333,29.7697,-93.3439,0046,28.4000
1981-11-03 11:30:00 UTC,2444911.979167,29.7697,-93.3439,0046,28.4000
1981-11-03 12:00:00 UTC,2444912.000000,29.7697,-93.3439,0046,28.4000
1981-11-03 12:30:00 UTC,2444912.020833,29.7697,-93.3439,0046,28.4000
1981-11-03 13:00:00 UTC,2444912.041667,29.7697,-93.3439,0046,28.4000
1981-11-03 13:30:00 UTC,2444912.062500,29.7697,-93.3439,0046,28.3000
1981-11-03 14:00:00 UTC,2444912.083333,29.7697,-93.3439,0046,28.2000
1981-11-03 14:30:00 UTC,2444912.104167,29.7697,-93.3439,0046,28.0000
1981-11-03 15:00:00 UTC,2444912.125000,29.7697,-93.3439,0046,27.6000
1981-11-03 15:30:00 UTC,2444912.145833,29.7697,-93.3439,0046,27.1000
1981-11-03 16:00:00 UTC,2444912.166667,29.7697,-93.3439,0046,26.7000
1981-11-03 16:30:00 UTC,2444912.187500,29.7697,-93.3439,0046,26.2000
1981-11-03 17:00:00 UTC,2444912.208333,29.7697,-93.3439,0046,25.8000
1981-11-03 17:30:00 UTC,2444912.229167,29.7697,-93.3439,0046,25.4000
1981-11-03 18:00:00 UTC,2444912.250000,29.7697,-93.3439,0046,25.0000
1981-11-03 18:30:00 UTC,2444912.270833,29.7697,-93.3439,0046,24.8000
1981-11-03 19:00:00 UTC,2444912.291667,29.7697,-93.3439,0046,24.6000
1981-11-03 19:30:00 UTC,2444912.312500,29.7697,-93.3439,0046,24.2000
1981-11-03 20:00:00 UTC,2444912.333333,29.7697,-93.3439,0046,23.8000
1981-11-03 20:30:00 UTC,2444912.354167,29.7697,-93.3439,0046,23.5000
1981-11-03 21:00:00 UTC,2444912.375000,29.7697,-93.3439,0046,23.2000
1981-11-03 21:30:00 UTC,2444912.395833,29.7697,-93.3439,0046,23.0000
1981-11-03 22:00:00 UTC,2444912.416667,29.7697,-93.3439,0046,22.8000
1981-11-03 22:30:00 UTC,2444912.437500,29.7697,-93.3439,0046,22.6000
1981-11-03 23:00:00 UTC,2444912.458333,29.7697,-93.3439,0046,22.6000
1981-11-03 23:30:00 UTC,2444912.479167,29.7697,-93.3439,0046,22.7000
1981-11-04 00:00:00 UTC,2444912.500000,29.7697,-93.3439,0046,23.7000
1981-11-04 00:30:00 UTC,2444912.520833,29.7697,-93.3439,0046,25.8000
1981-11-04 01:00:00 UTC,2444912.541667,29.7697,-93.3439,0046,27.7000
1981-11-04 01:30:00 UTC,2444912.562500,29.7697,-93.3439,0046,28.4000
1981-11-04 02:00:00 UTC,2444912.583333,29.7697,-93.3439,0046,28.4000
1981-11-04 02:30:00 UTC,2444912.604167,29.7697,-93.3439,0046,28.5000
1981-11-04 03:00:00 UTC,2444912.625000,29.7697,-93.3439,0046,28.5000
1981-11-04 03:30:00 UTC,2444912.645833,29.7697,-93.3439,0046,28.4000
1981-11-04 04:00:00 UTC,2444912.666667,29.7697,-93.3439,0046,28.4000
1981-11-04 04:30:00 UTC,2444912.687500,29.7697,-93.3439,0046,28.4000
1981-11-04 05:00:00 UTC,2444912.708333,29.7697,-93.3439,0046,28.4000
1981-11-04 05:30:00 UTC,2444912.729167,29.7697,-93.3439,0046,28.4000
1981-11-04 06:00:00 UTC,2444912.750000,29.7697,-93.3439,0046,28.3000
1981-11-04 06:30:00 UTC,2444912.770833,29.7697,-93.3439,0046,28.3000
1981-11-04 07:00:00 UTC,2444912.791667,29.7697,-93.3439,0046,28.3000
1981-11-04 07:30:00 UTC,2444912.812500,29.7697,-93.3439,0046,28.3000
1981-11-04 08:00:00 UTC,2444912.833333,29.7697,-93.3439,0046,28.3000
1981-11-04 08:30:00 UTC,2444912.854167,29.7697,-93.3439,0046,28.3000
1981-11-04 09:00:00 UTC,2444912.875000,29.7697,-93.3439,0046,28.3000
1981-11-04 09:30:00 UTC,2444912.895833,29.7697,-93.3439,0046,28.3000
1981-11-04 10:00:00 UTC,2444912.916667,29.7697,-93.3439,0046,28.3000
1981-11-04 10:30:00 UTC,2444912.937500,29.7697,-93.3439,0046,28.2000
1981-11-04 11:00:00 UTC,2444912.958333,29.7697,-93.3439,0046,28.3000
1981-11-04 11:30:00 UTC,2444912.979167,29.7697,-93.3439,0046,28.3000
1981-11-04 12:00:00 UTC,2444913.000000,29.7697,-93.3439,0046,28.3000
1981-11-04 12:30:00 UTC,2444913.020833,29.7697,-93.3439,0046,28.3000
1981-11-04 13:00:00 UTC,2444913.041667,29.7697,-93.3439,0046,28.3000
1981-11-04 13:30:00 UTC,2444913.062500,29.7697,-93.3439,0046,28.3000
1981-11-04 14:00:00 UTC,2444913.083333,29.7697,-93.3439,0046,28.3000
1981-11-04 14:30:00 UTC,2444913.104167,29.7697,-93.3439,0046,28.3000
1981-11-04 15:00:00 UTC,2444913.125000,29.7697,-93.3439,0046,28.3000
1981-11-04 15:30:00 UTC,2444913.145833,29.7697,-93.3439,0046,28.3000
1981-11-04 16:00:00 UTC,2444913.166667,29.7697,-93.3439,0046,28.2000
1981-11-04 16:30:00 UTC,2444913.187500,29.7697,-93.3439,0046,28.0000
1981-11-04 17:00:00 UTC,2444913.208333,29.7697,-93.3439,0046,27.6000
1981-11-04 17:30:00 UTC,2444913.229167,29.7697,-93.3439,0046,27.2000
1981-11-04 18:00:00 UTC,2444913.250000,29.7697,-93.3439,0046,26.5000
1981-11-04 18:30:00 UTC,2444913.270833,29.7697,-93.3439,0046,25.9000
1981-11-04 19:00:00 UTC,2444913.291667,29.7697,-93.3439,0046,25.5000
1981-11-04 19:30:00 UTC,2444913.312500,29.7697,-93.3439,0046,25.2000
1981-11-04 20:00:00 UTC,2444913.333333,29.7697,-93.3439,0046,24.9000
1981-11-04 20:30:00 UTC,2444913.354167,29.7697,-93.3439,0046,24.6000
1981-11-04 21:00:00 UTC,2444913.375000,29.7697,-93.3439,0046,24.4000
1981-11-04 21:30:00 UTC,2444913.395833,29.7697,-93.3439,0046,24.0000
1981-11-04 22:00:00 UTC,2444913.416667,29.7697,-93.3439,0046,23.7000
1981-11-04 22:30:00 UTC,2444913.437500,29.7697,-93.3439,0046,23.5000